This demonstration page uses our WeatherBlox Daily Observations layout. Learn more.

Left ArrowRight Arrow

39.08367, -84.50855

Hourly Observations for March 6, 2016

Temp ( °F °C ) Dew Point ( °F °C ) Humidity (%) Winds ( mph kmh ) Pressure ( in mb ) Visibility ( mi km ) Precip ( " mm )
12:53 am 00:53 Cloudy 39 3.9 32 undefined 76 76 NNW 9 15 30.28 1025 8 12.87472 N/A
1:53 am 01:53 Cloudy 38 3.3 32 undefined 79 79 N 6 9 30.29 1026 8 12.87472 N/A
2:53 am 02:53 Cloudy 38 3.3 32 undefined 79 79 N 6 9 30.3 1026 7 11.26538 N/A
3:53 am 03:53 Cloudy 37 2.8 33 0.6 86 86 N 3 6 30.29 1026 7 11.26538 N/A
4:00 am 04:00 Cloudy 37 3 34 1 87 87 N 3 6 30.27 1025 7 11.26538 N/A
4:53 am 04:53 Cloudy with Mist and Fog 37 2.8 33 0.6 86 86 NNE 3 6 30.3 1026 6 9.65604 N/A
5:53 am 05:53 Cloudy 37 2.8 31 -0.6 79 79 NNW 3 6 30.32 1027 7 11.26538 N/A
6:53 am 06:53 Cloudy 37 2.8 32 undefined 82 82 N N/A 30.35 1028 7 11.26538 N/A
7:53 am 07:53 Cloudy with Haze 37 2.8 31 -0.6 79 79 ENE 3 6 30.35 1028 6 9.65604 N/A
8:53 am 08:53 Cloudy 38 3.3 30 -1.1 73 73 E 3 6 30.36 1028 8 12.87472 N/A
9:53 am 09:53 Cloudy 39 3.9 31 -0.6 73 73 N N/A 30.37 1028 8 12.87472 N/A
10:53 am 10:53 Cloudy 40 4.4 32 undefined 73 73 SW 6 9 30.36 1028 7 11.26538 N/A
11:53 am 11:53 Partly Cloudy 42 5.6 33 0.6 71 71 SW 8 13 30.33 1027 8 12.87472 N/A
12:53 pm 12:53 Sunny 45 7.2 33 0.6 63 63 undefined N/A 30.29 1026 10 16.0934 N/A
1:53 pm 13:53 Sunny 47 8.3 34 1.1 61 61 VRB 6 9 30.27 1025 10 16.0934 N/A
2:53 pm 14:53 Sunny 50 10 35 1.7 57 57 S 7 11 30.25 1024 10 16.0934 N/A
3:53 pm 15:53 Sunny 51 10.6 35 1.7 54 54 S 6 9 30.22 1024 10 16.0934 N/A
4:53 pm 16:53 Sunny 51 10.6 35 1.7 54 54 S 9 15 30.22 1023 10 16.0934 N/A
5:53 pm 17:53 Sunny 49 9.4 35 1.7 59 59 SSE 9 15 30.2 1023 10 16.0934 N/A
6:53 pm 18:53 Clear 48 8.9 35 1.7 61 61 S 6 9 30.2 1023 10 16.0934 N/A
7:53 pm 19:53 Clear 45 7.2 35 1.7 68 68 SSW 3 6 30.18 1022 10 16.0934 N/A
8:53 pm 20:53 Clear 44 6.7 35 1.7 71 71 N N/A 30.18 1022 10 16.0934 N/A
9:53 pm 21:53 Clear 43 6.1 35 1.7 74 74 SW 3 6 30.17 1022 10 16.0934 N/A
10:53 pm 22:53 Clear 41 5 35 1.7 79 79 SW 5 7 30.15 1021 10 16.0934 N/A
11:53 pm 23:53 Clear 39 3.9 35 1.7 86 86 W 6 9 30.14 1021 10 16.0934 N/A

Powered by AerisWeather